Hourly Data Report for September 23, 2017

All times are specified in Local Standard Time (LST). Add 1 hour to adjust for Daylight Saving Time where and when it is observed.

NORTH CAPE
PRINCE EDWARD ISLAND

47°03'29.000" N
63°59'55.000" W
7.60 m
8300516
71987
WNE

Download Data

Hourly Data (September 2017)
Hourly Data Report for September 23, 2017
Temp Definition
°C
Dew Point Temp Definition
°C
Rel Hum Definition
%
Wind Dir Definition
10's deg

Wind Spd Definition
km/h
Visibility Definition
km
Stn Press Definition
kPa
Hmdx Definition


Wind Chill Definition


Weather Definition


TIME
00:00 13.8 10.1 79 21 13   101.67     LegendNANA
01:00 13.9 10.7 81 21 17   101.62     LegendNANA
02:00 14.3 8.3 67 21 18   101.56     LegendNANA
03:00 14.6 9.9 73 22 17   101.47     LegendNANA
04:00 15.1 10.3 73 23 23   101.40     LegendNANA
05:00 14.7 10.2 75 22 25   101.36     LegendNANA
06:00 14.4 10.4 77 22 23   101.31     LegendNANA
07:00 15.3 11.5 78 23 29   101.29     LegendNANA
08:00 15.7 11.6 77 23 31   101.24     LegendNANA
09:00 16.2 11.2 72 23 34   101.17     LegendNANA
10:00 17.1 10.8 67 23 39   101.09     LegendNANA
11:00 18.8 10.4 58 23 39   101.11     LegendNANA
12:00 19.8 10.7 56 23 40   101.04     LegendNANA
13:00 20.2 11.0 56 23 34   101.05     LegendNANA
14:00 20.7 11.5 56 23 31   101.02     LegendNANA
15:00 20.5 12.7 61 24 23   101.02     LegendNANA
16:00 19.4 14.2 72 25 14   101.07     LegendNANA
17:00 20.2 14.0 68 29 14   101.20     LegendNANA
18:00 17.3 12.4 73 6 27   101.28     LegendNANA
19:00 16.6 12.4 76 6 22   101.39     LegendNANA
20:00 16.5 12.5 77 6 17   101.52     LegendNANA
21:00 16.3 12.4 78 5 17   101.57     LegendNANA
22:00 16.3 12.1 76 7 20   101.57     LegendNANA
23:00 16.0 12.1 77 10 26   101.60     LegendNANA

Notes on Data Quality.

Legend

  • E = Estimated
  • M = Missing
  • NA = Not Available
  • ‡ = Partner data that is not subject to review by the National Climate Archives
Date modified: